This is the latest recevied weather packets stored in our database for station/object YM2KDZ-10. If no packets are shown the sender has not sent any weather packets the latest 10 day(s).
| Time | Temp. | Humidity | Pressure | Rain* | Wind** | Luminosity | Snow |
|---|---|---|---|---|---|---|---|
| 1778092211 | 10.56° C | 97% | 999.2 hPa | 0 mm | 1.79 m/s, 40° | - | - |
| 1778085011 | 13.89° C | 87% | 998.8 hPa | 0 mm | 1.34 m/s, 35° | - | - |
| 1778081411 | 15° C | 75% | 999 hPa | 0 mm | 0.89 m/s, 67° | - | - |
| 1778077811 | 15.56° C | 68% | 999.1 hPa | 0 mm | 0 m/s | - | - |
| 1778075725 | 15.56° C | 67% | 999.3 hPa | 0 mm | 0.89 m/s, 276° | - | - |
| 1778074720 | 15.56° C | 67% | 999.4 hPa | 0 mm | 1.34 m/s, 279° | - | - |
| 1778074688 | 15.56° C | 67% | 999.4 hPa | 0 mm | 1.34 m/s, 279° | - | - |
| 1778074551 | 15.56° C | 67% | 999.4 hPa | 0 mm | 1.34 m/s, 279° | - | - |
| 1778074212 | 15.56° C | 67% | 999.4 hPa | 0 mm | 1.34 m/s, 279° | - | - |
| 1778070612 | 16.11° C | 65% | 999.4 hPa | 0 mm | 1.79 m/s, 276° | - | - |
| 1778067013 | 16.11° C | 70% | 999.4 hPa | 0 mm | 0.89 m/s, 259° | - | - |
| 1778063413 | 15° C | 70% | 999.8 hPa | 0 mm | 0.45 m/s, 256° | - | - |
| 1778060567 | 13.89° C | 76% | 1000.3 hPa | 0 mm | 0 m/s | - | - |
| 1778060531 | 13.89° C | 76% | 1000.3 hPa | 0 mm | 0 m/s | - | - |
| 1778060434 | 13.89° C | 76% | 1000.3 hPa | 0 mm | 0 m/s | - | - |
| 1778060321 | 13.89° C | 76% | 1000.3 hPa | 0 mm | 0 m/s | - | - |
| 1778059762 | 13.33° C | 77% | 1000.4 hPa | 0 mm | 0 m/s | - | - |
| 1778053473 | 12.22° C | 86% | 1000.3 hPa | 0 mm | 0.45 m/s, 45° | - | - |
| 1778053313 | 12.22° C | 86% | 1000.3 hPa | 0 mm | 0.45 m/s, 45° | - | - |
| 1778053153 | 12.22° C | 86% | 1000.3 hPa | 0 mm | 0.45 m/s, 45° | - | - |
| 1778053066 | 12.22° C | 86% | 1000.3 hPa | 0 mm | 0.45 m/s, 45° | - | - |
| 1778051686 | 11.67° C | 89% | 1000.2 hPa | 0 mm | 0.45 m/s, 27° | - | - |
| 1778051634 | 11.67° C | 89% | 1000.2 hPa | 0 mm | 0.45 m/s, 27° | - | - |
| 1778051575 | 11.67° C | 89% | 1000.2 hPa | 0 mm | 0.45 m/s, 27° | - | - |
| 1778051534 | 11.67° C | 89% | 1000.2 hPa | 0 mm | 0.45 m/s, 27° | - | - |
* Rain latest hour (hover to see other rain measurements)
** Current wind speed in m/s (hover to see current wind gust speed)